This demonstration page uses our WeatherBlox Daily Observations layout. Learn more.

Left ArrowRight Arrow

36.19886, -115.1175

Hourly Observations for March 18, 2017

Temp ( °F °C ) Dew Point ( °F °C ) Humidity (%) Winds ( mph kmh ) Pressure ( in mb ) Visibility ( mi km ) Precip ( " mm )
12:53 am 00:53 Clear 68 20 37 2.8 32 32 N N/A 30.04 1017 10 16 N/A
1:53 am 01:53 Clear 67 19.4 37 2.8 33 33 N N/A 30.04 1017 10 16 N/A
2:53 am 02:53 Clear 64 17.8 37 2.8 37 37 NNW 3 6 30.04 1017 10 16 N/A
3:53 am 03:53 Clear 62 16.7 38 3.3 41 41 WNW 5 7 30.03 1017 10 16 N/A
4:53 am 04:53 Clear 62 16.7 38 3.3 41 41 NW 5 7 30.04 1017 10 16 N/A
5:53 am 05:53 Clear 60 15.6 38 3.3 44 44 NNW 3 6 30.06 1018 10 16 N/A
6:53 am 06:53 Sunny 60 15.6 39 3.9 46 46 NNE 3 6 30.07 1018 10 16 N/A
7:53 am 07:53 Sunny 64 17.8 38 3.3 38 38 N N/A 30.09 1019 10 16 N/A
8:53 am 08:53 Sunny 68 20 37 2.8 32 32 N N/A 30.10 1019 10 16 N/A
9:53 am 09:53 Sunny 72 22.2 35 1.7 26 26 E 6 9 30.10 1019 10 16 N/A
10:53 am 10:53 Sunny 75 23.9 34 1.1 22 22 E 5 7 30.10 1019 10 16 N/A
11:53 am 11:53 Sunny 78 25.6 34 1.1 20 20 SE 6 9 30.08 1019 10 16 N/A
12:53 pm 12:53 Sunny 83 28.3 34 1.1 17 17 SE 9 15 30.04 1017 10 16 N/A
1:53 pm 13:53 Sunny 86 30 34 1.1 15 15 SSE 12 19 30.00 1016 10 16 N/A
2:53 pm 14:53 Partly Cloudy 87 30.6 32 undefined 14 14 SE 10 17 29.97 1015 10 16 N/A
3:53 pm 15:53 Sunny 89 31.7 28 -2.2 11 11 S 16 26 29.95 1014 10 16 N/A
4:53 pm 16:53 Sunny 88 31.1 27 -2.8 11 11 WSW 17 28 29.95 1014 10 16 N/A
5:53 pm 17:53 Sunny 86 30 25 -3.9 11 11 WSW 18 30 29.96 1015 10 16 N/A
6:53 pm 18:53 Clear 84 28.9 27 -2.8 12 12 WSW 8 13 29.97 1015 10 16 N/A
7:53 pm 19:53 Clear 81 27.2 29 -1.7 15 15 SW 8 13 29.98 1015 10 16 N/A
8:53 pm 20:53 Clear 78 25.6 30 -1.1 17 17 WSW 7 11 29.99 1016 10 16 N/A
9:53 pm 21:53 Clear 78 25.6 31 -0.6 18 18 SW 13 20 30.00 1016 10 16 N/A
10:53 pm 22:53 Clear 74 23.3 32 undefined 21 21 WSW 7 11 30.00 1016 10 16 N/A
11:53 pm 23:53 Clear 72 22.2 33 0.6 24 24 N N/A 30.01 1016 10 16 N/A

Powered by AerisWeather